| time (UTC) | temp F | wind direction | speed MPH | gust MPH | rain 1hr in | rain 24hr in | rain mn in | humidity % | barometer mb |
| 20260904212516 | 72 | 1 | 1.0 | 3.0 | 0.00 | 0.18 | 0.00 | 81 | 1014.5 |
| 20260904212020 | 72 | 40 | 1.0 | 3.0 | 0.00 | 0.18 | 0.00 | 82 | 1014.4 |
| 20260904211534 | 72 | 0 | 0.0 | 3.0 | 0.00 | 0.18 | 0.00 | 83 | 1014.3 |
| 20260904211015 | 72 | 0 | 0.0 | 3.0 | 0.00 | 0.18 | 0.00 | 82 | 1014.5 |
| 20260904210517 | 72 | 0 | 1.0 | 3.0 | 0.00 | 0.18 | 0.00 | 82 | 1014.4 |
| 20260904210035 | 72 | 31 | 1.0 | 3.0 | 0.00 | 0.18 | 0.00 | 83 | 1014.6 |
| 20260904205520 | 72 | 0 | 0.0 | 0.0 | 0.00 | 0.33 | 0.00 | 83 | 1014.6 |
| 20260904205018 | 72 | 0 | 0.0 | 2.0 | 0.00 | 0.33 | 0.00 | 82 | 1014.6 |
| 20260904204538 | 72 | 0 | 0.0 | 2.0 | 0.00 | 0.33 | 0.00 | 82 | 1014.7 |
| 20260904204017 | 72 | 0 | 0.0 | 2.0 | 0.00 | 0.33 | 0.00 | 82 | 1014.6 |
| 20260904203518 | 73 | 0 | 0.0 | 2.0 | 0.00 | 0.33 | 0.00 | 82 | 1014.6 |
| 20260904203038 | 73 | 0 | 0.0 | 3.0 | 0.00 | 0.33 | 0.00 | 82 | 1014.7 |
| 20260904202519 | 73 | 43 | 0.0 | 3.0 | 0.00 | 0.33 | 0.00 | 82 | 1014.5 |
| 20260904202017 | 73 | 14 | 0.0 | 2.0 | 0.00 | 0.33 | 0.00 | 81 | 1014.4 |
| 20260904201533 | 73 | 0 | 0.0 | 0.0 | 0.00 | 0.33 | 0.00 | 82 | 1014.6 |
| 20260904201017 | 74 | 0 | 0.0 | 2.0 | 0.00 | 0.33 | 0.00 | 82 | 1014.7 |
| 20260904200516 | 74 | 0 | 0.0 | 2.0 | 0.00 | 0.33 | 0.00 | 81 | 1014.6 |
| 20260904200050 | 74 | 0 | 0.0 | 2.0 | 0.00 | 0.33 | 0.00 | 81 | 1014.7 |
| 20260904195521 | 74 | 0 | 0.0 | 2.0 | 0.00 | 0.33 | 0.00 | 82 | 1014.8 |
| 20260904195020 | 74 | 18 | 0.0 | 2.0 | 0.00 | 0.33 | 0.00 | 82 | 1014.8 |
| 20260904194537 | 74 | 0 | 0.0 | 1.0 | 0.00 | 0.33 | 0.00 | 83 | 1014.6 |
| 20260904194019 | 74 | 0 | 0.0 | 2.0 | 0.00 | 0.33 | 0.00 | 83 | 1014.7 |
| 20260904193519 | 74 | 0 | 0.0 | 2.0 | 0.00 | 0.33 | 0.00 | 83 | 1014.9 |
| 20260904193038 | 74 | 0 | 0.0 | 1.0 | 0.00 | 0.33 | 0.00 | 84 | 1015.1 |
| 20260904192516 | 74 | 0 | 0.0 | 1.0 | 0.00 | 0.33 | 0.00 | 82 | 1015.1 |
| 20260904192016 | 74 | 0 | 0.0 | 1.0 | 0.00 | 0.33 | 0.00 | 83 | 1015.2 |
| 20260904191540 | 74 | 0 | 0.0 | 1.0 | 0.00 | 0.33 | 0.00 | 84 | 1015.2 |
| 20260904191016 | 74 | 0 | 0.0 | 1.0 | 0.00 | 0.33 | 0.00 | 83 | 1015.2 |
| 20260904190520 | 73 | 0 | 0.0 | 0.0 | 0.00 | 0.33 | 0.00 | 84 | 1015.1 |
| 20260904190036 | 73 | 0 | 0.0 | 0.0 | 0.00 | 0.33 | 0.00 | 85 | 1015.2 |
| 20260904185519 | 73 | 0 | 0.0 | 0.0 | 0.00 | 0.33 | 0.00 | 84 | 1015.2 |
| 20260904185017 | 73 | 0 | 0.0 | 0.0 | 0.00 | 0.33 | 0.00 | 85 | 1015.3 |
| 20260904184537 | 73 | 0 | 0.0 | 0.0 | 0.00 | 0.33 | 0.00 | 85 | 1015.3 |
| 20260904184019 | 73 | 0 | 0.0 | 0.0 | 0.00 | 0.33 | 0.00 | 84 | 1015.3 |
| 20260904183518 | 73 | 0 | 0.0 | 0.0 | 0.00 | 0.33 | 0.00 | 86 | 1015.3 |
| 20260904183050 | 72 | 0 | 0.0 | 0.0 | 0.00 | 0.33 | 0.00 | 85 | 1015.6 |
| 20260904182517 | 72 | 0 | 0.0 | 0.0 | 0.00 | 0.33 | 0.00 | 85 | 1015.6 |
| 20260904182023 | 72 | 0 | 0.0 | 0.0 | 0.00 | 0.33 | 0.00 | 85 | 1015.6 |
| 20260904181540 | 72 | 0 | 0.0 | 0.0 | 0.00 | 0.33 | 0.00 | 85 | 1015.7 |
| 20260904181016 | 72 | 0 | 0.0 | 0.0 | 0.00 | 0.33 | 0.00 | 85 | 1015.7 |
| 20260904180518 | 72 | 0 | 0.0 | 0.0 | 0.00 | 0.33 | 0.00 | 86 | 1015.7 |
| 20260904180036 | 72 | 0 | 0.0 | 0.0 | 0.00 | 0.33 | 0.00 | 88 | 1015.8 |
| 20260904175520 | 72 | 0 | 0.0 | 0.0 | 0.00 | 0.33 | 0.00 | 86 | 1015.8 |
| 20260904175019 | 72 | 0 | 0.0 | 0.0 | 0.00 | 0.33 | 0.00 | 87 | 1015.9 |
| 20260904174534 | 71 | 0 | 0.0 | 0.0 | 0.00 | 0.33 | 0.00 | 87 | 1015.9 |
| 20260904174017 | 71 | 0 | 0.0 | 0.0 | 0.00 | 0.33 | 0.00 | 88 | 1015.8 |
| 20260904173518 | 71 | 0 | 0.0 | 0.0 | 0.00 | 0.33 | 0.00 | 88 | 1016.0 |
| 20260904173035 | 71 | 0 | 0.0 | 0.0 | 0.00 | 0.33 | 0.00 | 87 | 1016.0 |
| 20260904172516 | 71 | 0 | 0.0 | 0.0 | 0.00 | 0.33 | 0.00 | 87 | 1015.9 |
| 20260904172017 | 71 | 0 | 0.0 | 0.0 | 0.00 | 0.33 | 0.00 | 88 | 1016.1 |
| 20260904171545 | 70 | 0 | 0.0 | 0.0 | 0.00 | 0.33 | 0.00 | 89 | 1016.2 |
| 20260904171020 | 70 | 0 | 0.0 | 0.0 | 0.00 | 0.33 | 0.00 | 89 | 1016.4 |
| 20260904170519 | 70 | 0 | 0.0 | 0.0 | 0.00 | 0.33 | 0.00 | 90 | 1016.4 |
| 20260904170042 | 69 | 0 | 0.0 | 0.0 | 0.00 | 0.33 | 0.00 | 90 | 1016.6 |
| 20260904165518 | 69 | 0 | 0.0 | 0.0 | 0.00 | 0.33 | 0.00 | 91 | 1016.5 |
| 20260904165020 | 69 | 0 | 0.0 | 0.0 | 0.00 | 0.33 | 0.00 | 91 | 1016.6 |
| 20260904164546 | 69 | 0 | 0.0 | 0.0 | 0.00 | 0.33 | 0.00 | 91 | 1016.7 |
| 20260904164021 | 69 | 0 | 0.0 | 0.0 | 0.00 | 0.33 | 0.00 | 91 | 1016.9 |
| 20260904163517 | 69 | 0 | 0.0 | 0.0 | 0.00 | 0.33 | 0.00 | 91 | 1017.1 |
| 20260904163034 | 69 | 0 | 0.0 | 0.0 | 0.00 | 0.33 | 0.00 | 91 | 1017.2 |
| 20260904162516 | 69 | 0 | 0.0 | 0.0 | 0.00 | 0.33 | 0.00 | 91 | 1017.4 |
| 20260904162015 | 68 | 0 | 0.0 | 0.0 | 0.00 | 0.33 | 0.00 | 92 | 1017.4 |
| 20260904161545 | 68 | 0 | 0.0 | 0.0 | 0.00 | 0.33 | 0.00 | 92 | 1017.6 |
| 20260904161018 | 68 | 0 | 0.0 | 0.0 | 0.00 | 0.32 | 0.00 | 92 | 1017.7 |
| 20260904160521 | 68 | 0 | 0.0 | 0.0 | 0.00 | 0.32 | 0.00 | 92 | 1017.8 |
| 20260904160038 | 68 | 0 | 0.0 | 0.0 | 0.00 | 0.32 | 0.00 | 92 | 1017.8 |
| 20260904155519 | 68 | 0 | 0.0 | 2.0 | 0.00 | 0.32 | 0.00 | 92 | 1017.9 |
| 20260904155018 | 68 | 0 | 0.0 | 2.0 | 0.00 | 0.32 | 0.00 | 93 | 1017.9 |
| 20260904154536 | 68 | 0 | 0.0 | 0.0 | 0.00 | 0.32 | 0.00 | 93 | 1017.9 |
| 20260904154018 | 68 | 0 | 0.0 | 3.0 | 0.00 | 0.32 | 0.00 | 93 | 1018.0 |
| 20260904153518 | 68 | 0 | 0.0 | 3.0 | 0.00 | 0.32 | 0.00 | 94 | 1017.7 |
| 20260904153059 | 68 | 0 | 0.0 | 1.0 | 0.00 | 0.32 | 0.00 | 94 | 1017.7 |
| 20260904152517 | 68 | 0 | 0.0 | 0.0 | 0.00 | 0.32 | 0.00 | 94 | 1017.6 |
| 20260904152017 | 68 | 0 | 0.0 | 0.0 | 0.00 | 0.32 | 0.00 | 94 | 1017.6 |
| 20260904151545 | 68 | 0 | 0.0 | 0.0 | 0.00 | 0.32 | 0.00 | 94 | 1017.6 |
| 20260904151021 | 67 | 0 | 0.0 | 0.0 | 0.00 | 0.32 | 0.00 | 94 | 1017.6 |
| 20260904150519 | 67 | 0 | 0.0 | 0.0 | 0.00 | 0.32 | 0.00 | 94 | 1017.6 |
| 20260904150042 | 67 | 0 | 0.0 | 0.0 | 0.00 | 0.32 | 0.00 | 94 | 1017.6 |
| 20260904145519 | 67 | 0 | 0.0 | 0.0 | 0.00 | 0.33 | 0.00 | 94 | 1017.6 |
| 20260904145019 | 67 | 0 | 0.0 | 0.0 | 0.00 | 0.33 | 0.00 | 94 | 1017.4 |
| 20260904144538 | 67 | 0 | 0.0 | 0.0 | 0.00 | 0.33 | 0.00 | 95 | 1017.4 |
| 20260904144021 | 67 | 0 | 0.0 | 0.0 | 0.00 | 0.33 | 0.00 | 95 | 1017.4 |
| 20260904143519 | 67 | 0 | 0.0 | 0.0 | 0.00 | 0.33 | 0.00 | 95 | 1017.3 |
| 20260904143036 | 67 | 0 | 0.0 | 0.0 | 0.00 | 0.33 | 0.00 | 94 | 1017.4 |
| 20260904142518 | 67 | 0 | 0.0 | 0.0 | 0.00 | 0.33 | 0.00 | 94 | 1017.5 |
| 20260904142017 | 67 | 0 | 0.0 | 0.0 | 0.00 | 0.33 | 0.00 | 95 | 1017.4 |
| 20260904141537 | 67 | 0 | 0.0 | 0.0 | 0.00 | 0.33 | 0.00 | 95 | 1017.3 |
| 20260904141019 | 67 | 0 | 0.0 | 0.0 | 0.00 | 0.33 | 0.00 | 95 | 1017.3 |
| 20260904140519 | 67 | 0 | 0.0 | 0.0 | 0.00 | 0.33 | 0.00 | 95 | 1017.3 |
| 20260904140039 | 67 | 0 | 0.0 | 0.0 | 0.00 | 0.33 | 0.00 | 95 | 1017.3 |
| 20260904135517 | 67 | 0 | 0.0 | 0.0 | 0.00 | 0.33 | 0.00 | 95 | 1017.2 |
| 20260904135018 | 67 | 0 | 0.0 | 0.0 | 0.00 | 0.33 | 0.00 | 95 | 1017.2 |
| 20260904134538 | 66 | 0 | 0.0 | 0.0 | 0.00 | 0.33 | 0.00 | 95 | 1017.1 |
| 20260904134021 | 66 | 0 | 0.0 | 0.0 | 0.00 | 0.33 | 0.00 | 95 | 1016.8 |
| 20260904133517 | 66 | 0 | 0.0 | 0.0 | 0.00 | 0.33 | 0.00 | 95 | 1016.5 |
| 20260904133037 | 66 | 0 | 0.0 | 0.0 | 0.00 | 0.33 | 0.00 | 95 | 1016.6 |
| 20260904132519 | 66 | 0 | 0.0 | 0.0 | 0.00 | 0.33 | 0.00 | 95 | 1016.5 |
| 20260904132018 | 66 | 0 | 0.0 | 0.0 | 0.00 | 0.33 | 0.00 | 95 | 1016.5 |
| 20260904131541 | 66 | 0 | 0.0 | 0.0 | 0.00 | 0.33 | 0.00 | 95 | 1016.7 |
| 20260904131017 | 66 | 0 | 0.0 | 0.0 | 0.00 | 0.33 | 0.00 | 95 | 1016.6 |
| 20260904130519 | 66 | 0 | 0.0 | 0.0 | 0.00 | 0.33 | 0.00 | 95 | 1016.8 |
| 20260904130033 | 66 | 0 | 0.0 | 0.0 | 0.00 | 0.33 | 0.00 | 95 | 1016.8 |
| 20260904125520 | 66 | 0 | 0.0 | 0.0 | 0.00 | 0.33 | 0.00 | 95 | 1016.9 |
| 20260904125019 | 66 | 0 | 0.0 | 0.0 | 0.00 | 0.33 | 0.00 | 95 | 1016.9 |
| 20260904124535 | 66 | 0 | 0.0 | 0.0 | 0.00 | 0.33 | 0.00 | 95 | 1016.9 |
| 20260904124017 | 66 | 0 | 0.0 | 0.0 | 0.00 | 0.33 | 0.00 | 95 | 1016.9 |
| 20260904123519 | 65 | 0 | 0.0 | 0.0 | 0.00 | 0.33 | 0.00 | 95 | 1016.9 |
| 20260904123037 | 65 | 0 | 0.0 | 0.0 | 0.00 | 0.33 | 0.00 | 95 | 1016.9 |
| 20260904122518 | 65 | 0 | 0.0 | 0.0 | 0.00 | 0.33 | 0.00 | 95 | 1017.1 |
| 20260904122017 | 65 | 0 | 0.0 | 0.0 | 0.00 | 0.33 | 0.00 | 95 | 1017.0 |
| 20260904121535 | 65 | 0 | 0.0 | 0.0 | 0.00 | 0.33 | 0.00 | 95 | 1016.8 |
| 20260904121015 | 65 | 0 | 0.0 | 0.0 | 0.00 | 0.33 | 0.00 | 95 | 1016.8 |
| 20260904120515 | 65 | 0 | 0.0 | 0.0 | 0.00 | 0.33 | 0.00 | 95 | 1016.6 |
| 20260904120034 | 65 | 0 | 0.0 | 0.0 | 0.00 | 0.33 | 0.00 | 95 | 1016.4 |
| 20260904115515 | 65 | 0 | 0.0 | 0.0 | 0.00 | 0.33 | 0.00 | 95 | 1016.5 |
| 20260904115023 | 65 | 0 | 0.0 | 0.0 | 0.00 | 0.33 | 0.00 | 95 | 1016.4 |
| 20260904114536 | 65 | 0 | 0.0 | 0.0 | 0.00 | 0.33 | 0.00 | 95 | 1016.4 |
| 20260904114017 | 64 | 0 | 0.0 | 0.0 | 0.00 | 0.33 | 0.00 | 95 | 1016.4 |
| 20260904113518 | 64 | 0 | 0.0 | 0.0 | 0.00 | 0.33 | 0.00 | 95 | 1016.4 |
| 20260904113042 | 64 | 0 | 0.0 | 0.0 | 0.00 | 0.33 | 0.00 | 95 | 1016.2 |
| 20260904112519 | 64 | 0 | 0.0 | 0.0 | 0.00 | 0.33 | 0.00 | 95 | 1016.3 |
| 20260904112017 | 64 | 0 | 0.0 | 0.0 | 0.00 | 0.33 | 0.00 | 95 | 1016.3 |
| 20260904111540 | 64 | 0 | 0.0 | 0.0 | 0.00 | 0.33 | 0.00 | 95 | 1016.3 |
| 20260904111016 | 64 | 0 | 0.0 | 0.0 | 0.00 | 0.33 | 0.00 | 95 | 1016.2 |
| 20260904110518 | 64 | 0 | 0.0 | 0.0 | 0.00 | 0.33 | 0.00 | 95 | 1016.2 |
| 20260904110037 | 64 | 0 | 0.0 | 0.0 | 0.00 | 0.33 | 0.00 | 94 | 1016.1 |
| 20260904105520 | 64 | 0 | 0.0 | 0.0 | 0.00 | 0.33 | 0.00 | 94 | 1016.1 |
| 20260904105018 | 64 | 0 | 0.0 | 0.0 | 0.00 | 0.33 | 0.00 | 94 | 1016.0 |
| 20260904104536 | 64 | 0 | 0.0 | 0.0 | 0.00 | 0.33 | 0.00 | 94 | 1016.0 |
| 20260904104021 | 64 | 0 | 0.0 | 0.0 | 0.00 | 0.33 | 0.00 | 94 | 1015.8 |
| 20260904103517 | 64 | 0 | 0.0 | 0.0 | 0.00 | 0.33 | 0.00 | 94 | 1015.7 |
| 20260904103049 | 64 | 0 | 0.0 | 0.0 | 0.00 | 0.33 | 0.00 | 94 | 1015.6 |
| 20260904102516 | 64 | 0 | 0.0 | 0.0 | 0.00 | 0.33 | 0.00 | 94 | 1015.6 |
| 20260904102018 | 64 | 0 | 0.0 | 0.0 | 0.00 | 0.33 | 0.00 | 94 | 1015.6 |
| 20260904101548 | 64 | 0 | 0.0 | 0.0 | 0.00 | 0.33 | 0.00 | 94 | 1015.7 |
| 20260904101020 | 64 | 0 | 0.0 | 0.0 | 0.00 | 0.33 | 0.00 | 95 | 1015.5 |
| 20260904100515 | 64 | 0 | 0.0 | 0.0 | 0.00 | 0.33 | 0.00 | 95 | 1015.6 |
| 20260904100035 | 64 | 0 | 0.0 | 0.0 | 0.00 | 0.33 | 0.00 | 95 | 1015.7 |
| 20260904095520 | 64 | 0 | 0.0 | 0.0 | 0.00 | 0.33 | 0.00 | 95 | 1015.6 |
| 20260904095018 | 64 | 0 | 0.0 | 0.0 | 0.00 | 0.33 | 0.00 | 95 | 1015.7 |
| 20260904094556 | 64 | 0 | 0.0 | 0.0 | 0.00 | 0.33 | 0.00 | 95 | 1015.8 |
| 20260904094017 | 64 | 0 | 0.0 | 0.0 | 0.00 | 0.33 | 0.00 | 95 | 1016.0 |
| 20260904093517 | 64 | 0 | 0.0 | 0.0 | 0.00 | 0.33 | 0.00 | 95 | 1016.0 |
| 20260904093038 | 64 | 0 | 0.0 | 0.0 | 0.00 | 0.33 | 0.00 | 94 | 1015.8 |
| 20260904092518 | 64 | 0 | 0.0 | 0.0 | 0.00 | 0.33 | 0.00 | 94 | 1016.1 |
| 20260904092018 | 65 | 0 | 0.0 | 0.0 | 0.00 | 0.33 | 0.00 | 94 | 1016.1 |
| 20260904091538 | 65 | 0 | 0.0 | 0.0 | 0.00 | 0.33 | 0.00 | 94 | 1016.0 |
| 20260904091018 | 65 | 0 | 0.0 | 0.0 | 0.00 | 0.33 | 0.00 | 94 | 1015.9 |
| 20260904090518 | 65 | 0 | 0.0 | 0.0 | 0.00 | 0.33 | 0.00 | 94 | 1015.7 |
| 20260904090037 | 65 | 0 | 0.0 | 0.0 | 0.00 | 0.33 | 0.00 | 94 | 1015.8 |
| 20260904085517 | 65 | 0 | 0.0 | 0.0 | 0.00 | 0.33 | 0.00 | 94 | 1015.8 |
| 20260904085022 | 65 | 0 | 0.0 | 0.0 | 0.00 | 0.33 | 0.00 | 94 | 1016.0 |
| 20260904084539 | 65 | 0 | 0.0 | 0.0 | 0.00 | 0.33 | 0.00 | 94 | 1016.0 |
| 20260904084018 | 65 | 0 | 0.0 | 0.0 | 0.00 | 0.33 | 0.00 | 94 | 1016.0 |
| 20260904083518 | 65 | 0 | 0.0 | 0.0 | 0.00 | 0.33 | 0.00 | 94 | 1016.0 |
| 20260904083042 | 65 | 0 | 0.0 | 0.0 | 0.00 | 0.33 | 0.00 | 94 | 1016.0 |
| 20260904082516 | 65 | 0 | 0.0 | 0.0 | 0.00 | 0.33 | 0.00 | 94 | 1015.7 |
| 20260904082017 | 65 | 0 | 0.0 | 0.0 | 0.00 | 0.33 | 0.00 | 94 | 1015.5 |
| 20260904081539 | 65 | 0 | 0.0 | 0.0 | 0.00 | 0.33 | 0.00 | 94 | 1015.4 |
| 20260904081023 | 65 | 0 | 0.0 | 0.0 | 0.00 | 0.33 | 0.00 | 94 | 1015.4 |
| 20260904080521 | 65 | 0 | 0.0 | 0.0 | 0.00 | 0.33 | 0.00 | 94 | 1015.4 |
| 20260904080035 | 65 | 0 | 0.0 | 0.0 | 0.00 | 0.33 | 0.00 | 94 | 1015.6 |
| 20260904075519 | 65 | 0 | 0.0 | 0.0 | 0.00 | 0.33 | 0.00 | 94 | 1015.6 |
| 20260904075018 | 65 | 0 | 0.0 | 0.0 | 0.00 | 0.33 | 0.00 | 94 | 1015.8 |
| 20260904074539 | 65 | 0 | 0.0 | 0.0 | 0.00 | 0.33 | 0.00 | 94 | 1015.8 |
| 20260904074020 | 65 | 0 | 0.0 | 0.0 | 0.00 | 0.33 | 0.00 | 94 | 1016.0 |
| 20260904073517 | 65 | 0 | 0.0 | 0.0 | 0.00 | 0.33 | 0.00 | 94 | 1016.0 |
| 20260904073047 | 65 | 0 | 0.0 | 0.0 | 0.00 | 0.33 | 0.00 | 94 | 1016.0 |
| 20260904072517 | 65 | 0 | 0.0 | 0.0 | 0.00 | 0.33 | 0.00 | 94 | 1016.0 |
| 20260904072018 | 65 | 0 | 0.0 | 0.0 | 0.00 | 0.33 | 0.00 | 94 | 1016.0 |
| 20260904071539 | 65 | 0 | 0.0 | 0.0 | 0.00 | 0.33 | 0.00 | 94 | 1016.2 |
| 20260904071017 | 65 | 0 | 0.0 | 0.0 | 0.00 | 0.33 | 0.00 | 94 | 1016.2 |
| 20260904070521 | 65 | 0 | 0.0 | 0.0 | 0.00 | 0.33 | 0.00 | 94 | 1016.3 |
| 20260904070039 | 65 | 0 | 0.0 | 0.0 | 0.00 | 0.33 | 0.00 | 94 | 1016.3 |
| 20260904065523 | 65 | 0 | 0.0 | 0.0 | 0.00 | 0.33 | 0.00 | 94 | 1016.3 |
| 20260904065019 | 65 | 0 | 0.0 | 0.0 | 0.00 | 0.33 | 0.00 | 94 | 1016.4 |
| 20260904064537 | 65 | 0 | 0.0 | 0.0 | 0.00 | 0.33 | 0.00 | 94 | 1016.3 |
| 20260904064021 | 65 | 0 | 0.0 | 0.0 | 0.00 | 0.33 | 0.00 | 94 | 1016.4 |
| 20260904063518 | 65 | 0 | 0.0 | 0.0 | 0.00 | 0.33 | 0.00 | 94 | 1016.4 |
| 20260904063039 | 65 | 0 | 0.0 | 0.0 | 0.00 | 0.33 | 0.00 | 94 | 1016.4 |
| 20260904062517 | 65 | 0 | 0.0 | 0.0 | 0.00 | 0.33 | 0.00 | 94 | 1016.5 |
| 20260904062017 | 66 | 0 | 0.0 | 0.0 | 0.00 | 0.33 | 0.00 | 94 | 1016.4 |
| 20260904061535 | 66 | 0 | 0.0 | 0.0 | 0.00 | 0.33 | 0.00 | 94 | 1016.5 |
| 20260904061019 | 66 | 0 | 0.0 | 0.0 | 0.00 | 0.33 | 0.00 | 94 | 1016.2 |
| 20260904060518 | 66 | 0 | 0.0 | 0.0 | 0.00 | 0.33 | 0.00 | 94 | 1016.3 |
| 20260904060056 | 66 | 0 | 0.0 | 0.0 | 0.00 | 0.33 | 0.00 | 94 | 1016.5 |
| 20260904055521 | 66 | 0 | 0.0 | 0.0 | 0.00 | 0.33 | 0.00 | 94 | 1016.4 |
| 20260904055019 | 66 | 0 | 0.0 | 0.0 | 0.00 | 0.33 | 0.00 | 94 | 1016.3 |
| 20260904054552 | 66 | 0 | 0.0 | 0.0 | 0.00 | 0.33 | 0.00 | 94 | 1016.4 |
| 20260904054020 | 66 | 0 | 0.0 | 0.0 | 0.00 | 0.33 | 0.00 | 94 | 1016.4 |
| 20260904053520 | 66 | 0 | 0.0 | 0.0 | 0.00 | 0.33 | 0.00 | 94 | 1016.5 |
| 20260904053044 | 66 | 0 | 0.0 | 0.0 | 0.00 | 0.33 | 0.00 | 94 | 1016.6 |
| 20260904052521 | 66 | 0 | 0.0 | 0.0 | 0.00 | 0.33 | 0.00 | 94 | 1016.8 |
| 20260904052019 | 67 | 0 | 0.0 | 0.0 | 0.00 | 0.33 | 0.00 | 94 | 1016.7 |
| 20260904051539 | 67 | 0 | 0.0 | 0.0 | 0.00 | 0.33 | 0.00 | 94 | 1016.7 |
| 20260904051020 | 67 | 0 | 0.0 | 0.0 | 0.00 | 0.33 | 0.00 | 94 | 1016.7 |
| 20260904050519 | 67 | 0 | 0.0 | 0.0 | 0.00 | 0.33 | 0.00 | 94 | 1016.7 |
| 20260904050039 | 67 | 0 | 0.0 | 0.0 | 0.00 | 0.33 | 0.00 | 94 | 1016.5 |
| 20260904045517 | 67 | 0 | 0.0 | 0.0 | 0.00 | 0.33 | 0.00 | 94 | 1016.6 |
| 20260904045019 | 67 | 0 | 0.0 | 0.0 | 0.00 | 0.33 | 0.00 | 94 | 1016.6 |
| 20260904044543 | 67 | 0 | 0.0 | 0.0 | 0.00 | 0.33 | 0.00 | 94 | 1016.7 |
| 20260904044018 | 68 | 0 | 0.0 | 0.0 | 0.00 | 0.33 | 0.00 | 94 | 1016.7 |
| 20260904043517 | 68 | 0 | 0.0 | 0.0 | 0.00 | 0.33 | 0.00 | 94 | 1016.7 |
| 20260904043043 | 68 | 0 | 0.0 | 0.0 | 0.00 | 0.33 | 0.00 | 94 | 1016.5 |
| 20260904042518 | 68 | 0 | 0.0 | 0.0 | 0.00 | 0.33 | 0.00 | 94 | 1016.5 |
| 20260904042015 | 68 | 0 | 0.0 | 0.0 | 0.00 | 0.33 | 0.00 | 94 | 1016.4 |
| 20260904041539 | 68 | 0 | 0.0 | 0.0 | 0.00 | 0.33 | 0.00 | 94 | 1016.4 |
| 20260904041017 | 68 | 0 | 0.0 | 0.0 | 0.00 | 0.33 | 0.00 | 94 | 1016.4 |
| 20260904040519 | 68 | 0 | 0.0 | 0.0 | 0.00 | 0.33 | 0.00 | 94 | 1016.2 |
| 20260904040041 | 68 | 0 | 0.0 | 0.0 | 0.00 | 0.33 | 0.00 | 94 | 1016.1 |
| 20260904035523 | 68 | 0 | 0.0 | 0.0 | 0.00 | 0.33 | 0.33 | 94 | 1016.0 |
| 20260904035017 | 68 | 0 | 0.0 | 0.0 | 0.00 | 0.33 | 0.33 | 94 | 1016.0 |
| 20260904034534 | 68 | 0 | 0.0 | 0.0 | 0.00 | 0.33 | 0.33 | 94 | 1016.0 |
| 20260904034016 | 68 | 0 | 0.0 | 0.0 | 0.00 | 0.33 | 0.33 | 94 | 1016.1 |
| 20260904033518 | 68 | 0 | 0.0 | 0.0 | 0.00 | 0.33 | 0.33 | 94 | 1016.1 |
| 20260904033040 | 68 | 0 | 0.0 | 0.0 | 0.00 | 0.33 | 0.33 | 94 | 1016.1 |
| 20260904032518 | 68 | 0 | 0.0 | 0.0 | 0.00 | 0.33 | 0.33 | 94 | 1016.0 |
| 20260904032019 | 68 | 0 | 0.0 | 0.0 | 0.00 | 0.33 | 0.33 | 94 | 1016.0 |
| 20260904031536 | 68 | 0 | 0.0 | 0.0 | 0.00 | 0.33 | 0.33 | 94 | 1016.1 |
| 20260904031017 | 68 | 0 | 0.0 | 0.0 | 0.00 | 0.33 | 0.33 | 94 | 1016.2 |
| 20260904030518 | 68 | 0 | 0.0 | 0.0 | 0.00 | 0.33 | 0.33 | 94 | 1016.0 |
| 20260904030037 | 68 | 0 | 0.0 | 0.0 | 0.00 | 0.33 | 0.33 | 94 | 1016.0 |
| 20260904025519 | 68 | 0 | 0.0 | 0.0 | 0.00 | 0.33 | 0.33 | 94 | 1016.0 |
| 20260904025017 | 68 | 0 | 0.0 | 0.0 | 0.00 | 0.33 | 0.33 | 94 | 1016.0 |
| 20260904024540 | 68 | 0 | 0.0 | 0.0 | 0.00 | 0.33 | 0.33 | 94 | 1015.9 |
| 20260904024017 | 68 | 0 | 0.0 | 0.0 | 0.00 | 0.33 | 0.33 | 94 | 1015.8 |
| 20260904023518 | 68 | 0 | 0.0 | 0.0 | 0.00 | 0.33 | 0.33 | 94 | 1015.8 |
| 20260904023039 | 68 | 0 | 0.0 | 0.0 | 0.00 | 0.33 | 0.33 | 94 | 1015.8 |
| 20260904022519 | 68 | 0 | 0.0 | 0.0 | 0.00 | 0.33 | 0.33 | 94 | 1015.9 |
| 20260904022021 | 68 | 0 | 0.0 | 0.0 | 0.00 | 0.33 | 0.33 | 94 | 1015.9 |
| 20260904021537 | 68 | 0 | 0.0 | 0.0 | 0.00 | 0.33 | 0.33 | 94 | 1015.7 |
| 20260904021019 | 68 | 0 | 0.0 | 0.0 | 0.00 | 0.33 | 0.33 | 94 | 1015.8 |
| 20260904020520 | 68 | 0 | 0.0 | 0.0 | 0.00 | 0.33 | 0.33 | 94 | 1016.0 |
| 20260904020038 | 68 | 0 | 0.0 | 0.0 | 0.00 | 0.33 | 0.33 | 94 | 1015.9 |
| 20260904015517 | 68 | 0 | 0.0 | 0.0 | 0.00 | 0.62 | 0.33 | 94 | 1015.8 |
| 20260904015022 | 68 | 0 | 0.0 | 0.0 | 0.00 | 0.62 | 0.33 | 94 | 1015.7 |
| 20260904014611 | 68 | 0 | 0.0 | 0.0 | 0.00 | 0.62 | 0.33 | 93 | 1015.8 |
| 20260904014018 | 67 | 0 | 0.0 | 0.0 | 0.00 | 0.62 | 0.33 | 93 | 1015.8 |
| 20260904013518 | 68 | 0 | 0.0 | 0.0 | 0.00 | 0.62 | 0.33 | 93 | 1015.8 |
| 20260904013042 | 68 | 0 | 0.0 | 0.0 | 0.00 | 0.62 | 0.33 | 93 | 1015.7 |
| 20260904012516 | 68 | 0 | 0.0 | 0.0 | 0.00 | 0.62 | 0.33 | 93 | 1015.6 |
| 20260904012019 | 68 | 0 | 0.0 | 0.0 | 0.00 | 0.62 | 0.33 | 93 | 1015.5 |
| 20260904011538 | 68 | 0 | 0.0 | 0.0 | 0.00 | 0.62 | 0.33 | 93 | 1015.5 |
| 20260904011023 | 68 | 0 | 0.0 | 0.0 | 0.00 | 0.62 | 0.33 | 93 | 1015.5 |
| 20260904010520 | 68 | 0 | 0.0 | 0.0 | 0.00 | 0.62 | 0.33 | 93 | 1015.4 |
| 20260904010035 | 68 | 0 | 0.0 | 0.0 | 0.00 | 0.62 | 0.33 | 93 | 1015.3 |
| 20260904005518 | 68 | 0 | 0.0 | 0.0 | 0.00 | 0.64 | 0.33 | 93 | 1015.2 |
| 20260904005017 | 68 | 0 | 0.0 | 0.0 | 0.00 | 0.64 | 0.33 | 93 | 1015.3 |
| 20260904004535 | 68 | 0 | 0.0 | 0.0 | 0.00 | 0.64 | 0.33 | 93 | 1015.2 |
| 20260904004016 | 68 | 0 | 0.0 | 0.0 | 0.00 | 0.64 | 0.33 | 93 | 1015.1 |
| 20260904003516 | 68 | 0 | 0.0 | 0.0 | 0.00 | 0.64 | 0.33 | 93 | 1015.1 |
| 20260904003038 | 69 | 0 | 0.0 | 0.0 | 0.00 | 0.64 | 0.33 | 93 | 1015.0 |
| 20260904002518 | 69 | 0 | 0.0 | 0.0 | 0.00 | 0.64 | 0.33 | 93 | 1015.0 |
| 20260904002016 | 69 | 0 | 0.0 | 0.0 | 0.00 | 0.64 | 0.33 | 93 | 1014.7 |
| 20260904001537 | 69 | 0 | 0.0 | 0.0 | 0.00 | 0.64 | 0.33 | 93 | 1014.9 |
| 20260904001024 | 69 | 0 | 0.0 | 0.0 | 0.00 | 0.64 | 0.33 | 93 | 1014.7 |
| 20260904000520 | 69 | 0 | 0.0 | 0.0 | 0.00 | 0.64 | 0.33 | 93 | 1014.7 |
| 20260904000035 | 69 | 0 | 0.0 | 0.0 | 0.00 | 0.64 | 0.33 | 93 | 1015.0 |
| 20260903235517 | 69 | 0 | 0.0 | 0.0 | 0.00 | 0.64 | 0.33 | 93 | 1015.1 |
| 20260903235017 | 69 | 0 | 0.0 | 0.0 | 0.00 | 0.64 | 0.33 | 93 | 1015.0 |
| 20260903234543 | 69 | 0 | 0.0 | 0.0 | 0.00 | 0.64 | 0.33 | 93 | 1015.0 |
| 20260903234017 | 70 | 0 | 0.0 | 0.0 | 0.00 | 0.64 | 0.33 | 93 | 1015.1 |
| 20260903233519 | 70 | 0 | 0.0 | 0.0 | 0.00 | 0.64 | 0.33 | 93 | 1014.9 |
| 20260903233039 | 70 | 0 | 0.0 | 0.0 | 0.00 | 0.64 | 0.33 | 93 | 1014.7 |
| 20260903232520 | 70 | 0 | 0.0 | 0.0 | 0.00 | 0.64 | 0.33 | 93 | 1014.7 |
| 20260903232019 | 70 | 0 | 0.0 | 0.0 | 0.00 | 0.64 | 0.33 | 93 | 1014.7 |
| 20260903231537 | 70 | 0 | 0.0 | 0.0 | 0.00 | 0.64 | 0.33 | 93 | 1014.8 |
| 20260903231020 | 70 | 0 | 0.0 | 0.0 | 0.00 | 0.64 | 0.33 | 93 | 1014.7 |
| 20260903230517 | 70 | 0 | 0.0 | 0.0 | 0.00 | 0.64 | 0.33 | 93 | 1014.7 |
| 20260903230039 | 70 | 0 | 0.0 | 0.0 | 0.00 | 0.64 | 0.33 | 93 | 1014.6 |
| 20260903225520 | 70 | 0 | 0.0 | 2.0 | 0.00 | 1.12 | 0.33 | 93 | 1014.2 |
| 20260903225019 | 70 | 0 | 0.0 | 2.0 | 0.00 | 1.12 | 0.33 | 93 | 1013.8 |
| 20260903224534 | 70 | 77 | 0.0 | 2.0 | 0.00 | 1.12 | 0.33 | 93 | 1013.5 |
| 20260903224017 | 70 | 77 | 0.0 | 1.0 | 0.00 | 1.12 | 0.33 | 93 | 1013.7 |
| 20260903223516 | 70 | 0 | 0.0 | 3.0 | 0.01 | 1.12 | 0.33 | 92 | 1013.9 |
| 20260903223035 | 70 | 0 | 0.0 | 3.0 | 0.02 | 1.12 | 0.33 | 92 | 1013.8 |
| 20260903222516 | 70 | 207 | 0.0 | 4.0 | 0.03 | 1.12 | 0.33 | 93 | 1014.0 |
| 20260903222016 | 71 | 0 | 0.0 | 4.0 | 0.04 | 1.12 | 0.33 | 93 | 1014.3 |
| 20260903221533 | 71 | 0 | 0.0 | 4.0 | 0.07 | 1.12 | 0.33 | 93 | 1014.4 |
| 20260903221018 | 71 | 0 | 0.0 | 1.0 | 0.10 | 1.12 | 0.33 | 93 | 1014.2 |
| 20260903220518 | 71 | 0 | 0.0 | 1.0 | 0.14 | 1.12 | 0.33 | 93 | 1014.2 |
| 20260903220037 | 71 | 0 | 0.0 | 1.0 | 0.16 | 1.12 | 0.33 | 93 | 1013.8 |
| 20260903215519 | 71 | 0 | 0.0 | 2.0 | 0.18 | 1.12 | 0.33 | 92 | 1013.7 |
| 20260903215020 | 71 | 0 | 0.0 | 2.0 | 0.20 | 1.12 | 0.33 | 92 | 1013.7 |
| 20260903214541 | 71 | 0 | 1.0 | 2.0 | 0.25 | 1.12 | 0.33 | 92 | 1013.8 |
| 20260903214018 | 71 | 0 | 0.0 | 1.0 | 0.27 | 1.11 | 0.32 | 92 | 1014.2 |
| 20260903213517 | 71 | 0 | 0.0 | 1.0 | 0.27 | 1.11 | 0.31 | 92 | 1014.5 |
| 20260903213042 | 71 | 0 | 0.0 | 1.0 | 0.28 | 1.10 | 0.30 | 92 | 1014.7 |